Regional Weather Roundup
Issued by NWS Upton, NY

Current Version | Previous Version | Graphics & Text | Print | Product List | Glossary Off
Versions: 1 2 3 4 5 6 7 8 9 10 11 12 13 14 15 16 17 18 19 20 21 22 23 24 25 26 27 28 29 30 31 32 33 34 35 36 37 38 39 40 41 42 43 44 45 46 47 48 49 50

000
ASUS41 KOKX 031108
RWROKX

REGIONAL WEATHER ROUNDUP
NATIONAL WEATHER SERVICE NEW YORK NY
700 AM EDT WED JUN 03 2015

NOTE: "FAIR" INDICATES FEW OR NO CLOUDS BELOW 12,000 FEET WITH NO
SIGNIFICANT WEATHER AND/OR OBSTRUCTIONS TO VISIBILITY.

NYZ071-072-176-178-NJZ106-104-031200-
NEW YORK CITY METRO AREA


CITY           SKY/WX    TMP DP  RH WIND       PRES   REMARKS
CENTRAL PARK   CLOUDY    53  49  86 VRB6      30.24R
LAGUARDIA APRT CLOUDY    54  48  80 N5        30.22R
KENNEDY INTL   CLOUDY    54  49  83 NE9       30.23R
NEWARK/LIBERTY PTSUNNY   54  50  86 N9        30.22R
BRNX BOT. GARD   N/A     52  48  87 CALM      30.22F
TETERBORO      CLOUDY    54  48  80 NE7       30.22R
$$

NYZ177-179-078>081-031200-
LONG ISLAND NEW YORK

CITY           SKY/WX    TMP DP  RH WIND       PRES   REMARKS
FARMINGDALE    CLOUDY    52  49  89 NE5       30.22R
ISLIP          CLOUDY    52  48  86 NE7       30.20R
SHIRLEY        CLOUDY    51  47  86 N3        30.23R
WESTHAMPTON    CLOUDY    51  49  92 N6        30.23R
MONTAUK POINT    N/A     50  45  83 N7        30.23R
$$

NYZ052-065-067-031200-
HUDSON VALLEY

CITY           SKY/WX    TMP DP  RH WIND       PRES   REMARKS
WHITE PLAINS   PTSUNNY   51  48  89 N8        30.21S
NEWBURGH       PTSUNNY   52  52 100 CALM      30.24R
MONTGOMERY     PTSUNNY   51  31  46 CALM      30.23R
POUGHKEEPSIE   PTSUNNY   53  50  89 CALM      30.23R
ALBANY         MOSUNNY   50  43  77 N7        30.26R
$$

NJZ001-105-106-008-010-013-015-019>022-104-031200-
NEW JERSEY

CITY           SKY/WX    TMP DP  RH WIND       PRES   REMARKS
NEWARK/LIBERTY PTSUNNY   54  50  86 N9        30.22R
TETERBORO      CLOUDY    54  48  80 NE7       30.22R
CALDWELL       PTSUNNY   53  48  83 NE6       30.23R
MORRISTOWN     CLOUDY    55  52  88 CALM      30.22R
SOMERVILLE     CLOUDY    54  50  86 NE5       30.20R
SUSSEX         CLOUDY    52  49  89 CALM      30.24R
ANDOVER          N/A     52  51  97 NE7       30.22R
TRENTON        CLOUDY    54  52  93 NE7       30.19R
MILLVILLE      CLOUDY    54  51  90 NE10G22   30.16R
ATLANTIC CITY  CLOUDY    54  52  93 NE13      30.16R
WRIGHTSTOWN    CLOUDY    52  50  93 NE12      30.16R
TOMS RIVER     CLOUDY   N/A N/A N/A NE8       30.19R
BELMAR         CLOUDY    52  45  76 NE8       30.19S
$$

PAZ047>061-062-071-031200-
EASTERN PENNSYLVANIA

CITY           SKY/WX    TMP DP  RH WIND       PRES   REMARKS
PHILADELPHIA   CLOUDY    56  51  84 NE8       30.19R
ALLENTOWN      CLOUDY    55  51  86 E6        30.20S
SCRANTON       PTSUNNY   53  49  86 NE5       30.21R
$$

CTZ002-004>006-009-010-012-RIZ004-006-007-MAZ004-011-015-031200-
SOUTHERN NEW ENGLAND
 IN CT

CITY           SKY/WX    TMP DP  RH WIND       PRES   REMARKS
BRADLEY INTL   FOG       48  46  93 N5        30.22R VSB 1/4
HARTFORD       PTSUNNY   48  45  89 VRB6      30.23R
DANBURY        CLOUDY    50  46  86 W3        30.24R
WTRBRY/OXFORD  PTSUNNY   48  41  76 CALM      30.23R
BRIDGEPORT     PTSUNNY  N/A N/A N/A MISG      30.23R
MERIDEN        PTSUNNY   47  45  93 CALM      30.23R
NEW HAVEN      PTSUNNY   49  48  97 CALM      30.23R
CHESTER        DRIZZLE   46  45  93 CALM      30.22R
GROTON         CLOUDY    49  45  86 N8        30.21R
WILLIMANTIC    CLOUDY    48  45  89 N5        30.22S

 IN RI

CITY           SKY/WX    TMP DP  RH WIND       PRES   REMARKS
PROVIDENCE     CLOUDY    48  45  89 N6        30.22R
BLOCK ISLAND   CLOUDY    48  45  87 NE10      30.20S
WESTERLY       CLOUDY    48  46  93 NE3       30.22R

 IN MA

CITY           SKY/WX    TMP DP  RH WIND       PRES   REMARKS
BOSTON         CLOUDY    50  46  86 W5        30.22S
WORCESTER      PTSUNNY   48  41  76 N7        30.21R
WESTFIELD      FOG       48  46  93 N6        30.23R VSB 1/2
PROVINCETOWN   PTSUNNY   48  43  81 N7        30.22S
NANTUCKET      CLOUDY    51  45  79 N18       30.20R
$$

ANZ330-335-338-340-345-350-353-355-031200-
COASTAL MARINE OBSERVATIONS


STATION/POSITION TIME  SKY/WX   TEMP    WIND        PRES    VSBY  WAVE
                                AIR SEA DIR/SP/G                  HT/PER
                 (UTC)          (F)     (DEG/KT/KT) (MB)    (MI)  (FT/S)
NY HARB ENTRANCE 1050            53 56   40/ 12/ 14 1022.4          3/ 8
4S FIRE IS       1003               54                N/A           3/ 6
20S FIRE ISLAND  1050            52 55   40/ 16/ 17 1022.1          5/ 6
GREAT SOUTH BAY  1000            51 62   40/  8/ 10   N/A
23SW MTP         1050            51 56   40/ 12/ 14 1022.7          4/ 5
HUDSON CANYON    NOT AVBL
KINGS POINT      1000            52 56   40/  2/  5 1022.3
CENTRAL LI SOUND 1000            51 55   50/  8/ 10   N/A
EASTERN LI SOUND 1000            49      30/  8/ 12   N/A
ROBBINS REEF     1000            54      50/ 12/ 14 1021.7
$$


>>>>>>>>>>>>>>>>>>>>>>>>>>>> KEY <<<<<<<<<<<<<<<<<<<<<<<<<<<
>                                                          <
>     SKY/WX - SKY CONDITION/PRESENT WEATHER               <
>     TMP    - TEMPERATURE IN FAHRENHEIT                   <
>     DP     - DEWPOINT IN FAHRENHEIT                      <
>     RH     - RELATIVE HUMIDITY IN PERCENT                <
>     WIND   - DIRECTION AND SPEED IN MPH                  <
>     PRES   - MEAN SEA LEVEL PRESSURE IN INCHES OF HG     <
>     WCI    - WIND CHILL INDEX                            <
>     VSB    - VISIBILITY IN MILES                         <
>     HX     - HEAT INDEX                                  <
>     TC     - TEMPERATURE IN CELSIUS                      <
>     VRB    - VARIABLE WIND DIRECTION                     <
>                                                          <
>>>>>>>>>>>>>>>>>>>>>>>>>>>> KEY <<<<<<<<<<<<<<<<<<<<<<<<<<<





USA.gov is the U.S. government's official web portal to all federal, state and local government web resources and services.